Imperial, CA

3:57 PM PDT on October 19, 2017 (GMT -0700)
Imperial County

Weather History for KIPL - September, 2013

Change the Weather History Date:

Sunday, September 1, 2013

  Actual Average Record
Temperature  
Mean Temperature 94 °F -  
Max Temperature 105 °F 103 °F 118 °F (1950)
Min Temperature 82 °F 76 °F 62 °F (1953)
Cooling Degree Days 28    
Growing Degree Days 44 (Base 50)    
Moisture  
Dew Point 65 °F    
Average Humidity 43    
Maximum Humidity 69    
Minimum Humidity 18    
Precipitation  
Precipitation 0.00 in - - ()
Sea Level Pressure  
Sea Level Pressure 29.76 in    
Wind  
Wind Speed 5 mph (SW)    
Max Wind Speed 10 mph    
Max Gust Speed -    
Visibility 10 miles    
Events      
Averages and records for this station are not official NWS values.
T = Trace of Precipitation, MM = Missing Value Source: NWS Daily Summary

Daily Weather History Graph

Daily Weather History Graph

Search for Another Location

Airport or City:

Trip Planner

Search our weather history database for the weather conditions in past years. The results will help you decide how hot, cold, wet, or windy it might be!

Date:

Astronomy

Sep. 01, 2013 Rise Set
Actual Time 6:17 AM PDT 7:06 PM PDT
Civil Twilight 5:52 AM PDT 7:31 PM PDT
Nautical Twilight 5:22 AM PDT 8:01 PM PDT
Astronomical Twilight 4:51 AM PDT 8:31 PM PDT
Moon 2:50 AM PDT (9/1) 4:40 PM PDT (9/1)
Length of Visible Light 13h 39m
Length of Day
12h 49m
Waning Crescent, 13% of the Moon is Illuminated
Sep 1
Waning Crescent
Sep 5
New
Sep 12
First Quarter
Sep 19
Full
Sep 26
Last Quarter

Hourly Weather History & Observations

Time (PDT) Temp. Heat Index Dew Point Humidity Pressure Visibility Wind Dir Wind Speed Gust Speed Precip Events Conditions
12:53 AM 84.9 °F 88.8 °F 69.1 °F 59% 29.79 in 10.0 mi WSW 9.2 mph - N/A   Clear
1:53 AM 84.0 °F 87.8 °F 69.1 °F 61% 29.78 in 10.0 mi WNW 5.8 mph - N/A   Clear
2:53 AM 82.0 °F 85.5 °F 69.1 °F 65% 29.77 in 10.0 mi West 3.5 mph - N/A   Clear
3:53 AM 82.9 °F 86.5 °F 69.1 °F 63% 29.77 in 10.0 mi SW 5.8 mph - N/A   Clear
4:53 AM 82.0 °F 85.5 °F 69.1 °F 65% 29.79 in 10.0 mi Calm Calm - N/A   Clear
5:53 AM 82.9 °F 87.0 °F 70.0 °F 65% 29.79 in 10.0 mi Calm Calm - N/A   Clear
6:53 AM 82.0 °F 86.3 °F 71.1 °F 69% 29.80 in 10.0 mi SSW 3.5 mph - N/A   Clear
7:53 AM 86.0 °F 90.7 °F 70.0 °F 59% 29.81 in 10.0 mi Calm Calm - N/A   Clear
8:53 AM 88.0 °F 92.9 °F 70.0 °F 55% 29.82 in 10.0 mi South 4.6 mph - N/A   Clear
9:53 AM 93.0 °F 96.4 °F 66.9 °F 42% 29.83 in 10.0 mi Calm Calm - N/A   Clear
10:53 AM 96.1 °F 99.3 °F 66.0 °F 37% 29.82 in 10.0 mi SSW 3.5 mph - N/A   Clear
11:53 AM 99.0 °F 100.5 °F 63.0 °F 30% 29.81 in 10.0 mi West 5.8 mph - N/A   Clear
12:53 PM 100.9 °F 104.0 °F 64.0 °F 30% 29.79 in 10.0 mi Variable 5.8 mph - N/A   Clear
1:53 PM 102.0 °F 105.2 °F 64.0 °F 29% 29.77 in 10.0 mi Variable 5.8 mph - N/A   Clear
2:53 PM 102.0 °F 102.2 °F 59.0 °F 24% 29.74 in 10.0 mi South 4.6 mph - N/A   Clear
3:53 PM 105.1 °F 103.3 °F 53.1 °F 18% 29.70 in 10.0 mi SSW 4.6 mph - N/A   Clear
4:53 PM 104.0 °F 102.3 °F 54.0 °F 19% 29.69 in 10.0 mi SSW 9.2 mph - N/A   Clear
5:53 PM 102.9 °F 102.4 °F 57.0 °F 22% 29.70 in 10.0 mi SSW 6.9 mph - N/A   Clear
6:53 PM 100.0 °F 100.2 °F 59.0 °F 26% 29.70 in 10.0 mi Calm Calm - N/A   Clear
7:53 PM 99.0 °F 99.5 °F 61.0 °F 28% 29.71 in 10.0 mi SW 5.8 mph - N/A   Clear
8:53 PM 93.0 °F 94.6 °F 64.0 °F 38% 29.73 in 10.0 mi SW 8.1 mph - N/A   Clear
9:53 PM 90.0 °F 91.7 °F 64.9 °F 43% 29.74 in 10.0 mi West 8.1 mph - N/A   Clear
10:53 PM 89.1 °F 91.0 °F 64.9 °F 45% 29.75 in 10.0 mi West 9.2 mph - N/A   Clear
11:53 PM 89.1 °F 90.0 °F 63.0 °F 42% 29.74 in 10.0 mi West 10.4 mph - N/A   Clear